Date,TemperatureHighF,TemperatureAvgF,TemperatureLowF,DewpointHighF,DewpointAvgF,DewpointLowF,HumidityHigh,HumidityAvg,HumidityLow,PressureMaxIn,PressureMinIn,WindSpeedMaxMPH,WindSpeedAvgMPH,GustSpeedMaxMPH,PrecipitationSumIn
2013-1-1,34.0,23.7,24.0,-99.9,-99.9,-99.9,0,0,100,30.12,30.01,19,-254,25,0.00
2013-1-2,23.0,21.1,18.0,-99.9,-99.9,-99.9,0,0,100,30.23,30.10,0,-999,0,0.00
2013-1-3,30.0,23.9,15.0,-99.9,-99.9,-99.9,0,0,100,30.22,30.10,0,-999,0,0.00
2013-1-4,31.0,26.5,26.0,-99.9,-99.9,-99.9,0,0,100,30.22,30.11,26,-681,32,0.00
2013-1-5,36.0,23.4,25.0,-99.9,-99.9,-99.9,0,0,100,30.35,30.12,16,-3,21,0.00
2013-1-6,37.0,27.9,33.0,-99.9,-99.9,-99.9,0,0,100,30.23,29.96,28,-10,32,0.00
2013-1-7,37.0,27.8,30.0,-99.9,-99.9,-99.9,0,0,100,30.45,30.23,22,-77,25,0.00
2013-1-8,44.0,28.4,29.0,-99.9,-99.9,-99.9,0,0,100,30.31,30.23,11,-97,21,0.00
2013-1-9,47.0,34.2,37.0,-99.9,-99.9,-99.9,0,0,100,30.44,30.15,22,-14,28,0.00
2013-1-10,44.0,29.2,29.0,-99.9,-99.9,-99.9,0,0,100,30.60,30.28,14,4,15,0.00
2013-1-11,58.0,37.8,45.0,-99.9,-99.9,-99.9,0,0,100,30.22,29.83,13,-22,27,0.00
2013-1-12,62.0,43.9,49.0,-99.9,-99.9,-99.9,0,0,100,30.02,29.86,12,-19,21,0.00
2013-1-13,66.0,40.2,39.0,-99.9,-99.9,-99.9,0,0,100,29.93,29.72,26,-44,36,0.00
2013-1-14,36.0,23.3,28.0,-99.9,-99.9,-99.9,0,0,100,30.45,30.12,20,-132,24,0.00
2013-1-15,29.0,21.3,27.0,-99.9,-99.9,-99.9,0,0,100,30.43,30.15,14,-36,20,0.00
2013-1-16,36.0,27.0,29.0,-99.9,-99.9,-99.9,0,0,100,30.11,29.89,24,-14,30,0.00
2013-1-17,35.0,27.4,27.0,-99.9,-99.9,-99.9,0,0,100,30.27,30.00,31,-19,37,0.00
2013-1-18,38.0,22.8,23.0,-99.9,-99.9,-99.9,0,0,100,30.49,30.09,31,-8,37,0.00
2013-1-19,51.0,34.2,38.0,-99.9,-99.9,-99.9,0,0,100,30.09,29.73,22,-12,34,0.00
2013-1-20,49.0,22.3,23.0,-99.9,-99.9,-99.9,0,0,100,30.17,29.68,42,14,49,0.00
2013-1-21,23.0,14.7,15.0,-99.9,-99.9,-99.9,0,0,100,30.15,29.95,36,8,42,0.00
2013-1-22,16.0,9.0,8.0,-99.9,-99.9,-99.9,0,0,100,30.28,30.08,34,25,39,0.00
2013-1-23,16.0,9.8,9.0,-99.9,-99.9,-99.9,0,0,100,30.29,30.09,26,11,32,0.00
2013-1-24,20.0,13.8,15.0,-99.9,-99.9,-99.9,0,0,100,30.56,30.09,28,-10,35,0.00
2013-1-25,19.0,13.5,15.0,-99.9,-99.9,-99.9,0,0,100,30.52,30.05,6,-69,13,0.00
2013-1-26,24.0,18.7,19.0,-99.9,-99.9,-99.9,0,0,100,30.45,30.09,17,10,20,0.00
2013-1-27,31.0,19.9,17.0,-99.9,-99.9,-99.9,0,0,100,30.52,30.25,8,-6,13,0.00
2013-1-28,50.0,31.5,30.0,-99.9,-99.9,-99.9,0,0,100,30.25,29.93,14,-21,26,0.00
2013-1-29,62.0,40.0,37.0,-99.9,-99.9,-99.9,0,0,100,30.06,29.64,13,-69,23,0.00
2013-1-30,65.0,47.6,37.0,-99.9,-99.9,-99.9,0,0,100,29.63,29.19,32,-66,41,0.00
2013-1-31,38.0,18.1,22.0,-99.9,-99.9,-99.9,0,0,100,29.87,29.28,36,-11,43,0.00
2013-2-1,22.0,13.5,13.0,-99.9,-99.9,-99.9,0,0,100,30.31,29.86,33,-16,39,0.00
2013-2-2,24.0,12.4,14.0,-99.9,-99.9,-99.9,0,0,100,30.30,29.98,15,-68,21,0.00
2013-2-3,21.0,20.0,18.0,-99.9,-99.9,-99.9,0,0,100,30.01,29.90,0,-999,0,0.00
2013-2-4,24.0,13.3,19.0,-99.9,-99.9,-99.9,0,0,100,30.03,29.89,9,-575,11,0.00
2013-2-5,28.0,9.7,22.0,-99.9,-99.9,-99.9,0,0,100,29.95,29.87,9,-115,14,0.00
2013-2-6,29.0,19.4,20.0,-99.9,-99.9,-99.9,0,0,100,30.34,29.95,23,-22,27,0.00
2013-2-7,46.0,27.0,21.0,-99.9,-99.9,-99.9,0,0,100,30.31,29.87,10,-57,19,0.00
2013-2-8,42.0,26.7,26.0,-99.9,-99.9,-99.9,0,0,100,30.27,29.74,34,-52,41,0.00
2013-2-9,27.0,20.5,22.0,-99.9,-99.9,-99.9,0,0,100,30.44,30.27,25,-56,29,0.00
2013-2-10,50.0,29.7,21.0,-99.9,-99.9,-99.9,0,0,100,30.33,29.80,11,-29,24,0.00
2013-2-11,51.0,31.9,34.0,-99.9,-99.9,-99.9,0,0,100,29.91,29.67,35,-35,46,0.00
2013-2-12,33.0,22.5,28.0,-99.9,-99.9,-99.9,0,0,100,30.09,29.93,25,-21,33,0.00
2013-2-13,31.0,23.1,27.0,-99.9,-99.9,-99.9,0,0,100,29.94,29.79,10,-26,12,0.00
2013-2-14,40.0,29.0,27.0,-99.9,-99.9,-99.9,0,0,100,29.88,29.78,28,-38,34,0.00
2013-2-15,36.0,23.2,27.0,-99.9,-99.9,-99.9,0,0,100,30.12,29.89,28,-11,36,0.00
2013-2-16,27.0,19.1,22.0,-99.9,-99.9,-99.9,0,0,100,30.10,29.99,25,-4,28,0.00
2013-2-17,22.0,14.9,17.0,-99.9,-99.9,-99.9,0,0,100,30.25,29.99,23,2,26,0.00
2013-2-18,47.0,24.8,16.0,-99.9,-99.9,-99.9,0,0,100,30.26,29.74,15,-17,27,0.00
2013-2-19,49.0,26.0,19.0,-99.9,-99.9,-99.9,0,0,100,29.97,29.58,35,-58,42,0.00
2013-2-20,23.0,15.5,17.0,-99.9,-99.9,-99.9,0,0,100,30.22,29.97,34,-75,38,0.00
2013-2-21,23.0,16.5,18.0,-99.9,-99.9,-99.9,0,0,100,30.38,30.22,21,-79,27,0.00
2013-2-22,40.0,27.6,19.0,-99.9,-99.9,-99.9,0,0,100,30.29,29.93,11,-117,18,0.00
2013-2-23,38.0,27.0,30.0,-99.9,-99.9,-99.9,0,0,100,29.98,29.91,23,-93,26,0.00
2013-2-24,32.0,24.0,27.0,-99.9,-99.9,-99.9,0,0,100,30.16,29.92,20,-22,23,0.00
2013-2-25,35.0,25.8,26.0,-99.9,-99.9,-99.9,0,0,100,30.23,30.09,16,-83,21,0.00
2013-2-26,40.0,28.0,26.0,-99.9,-99.9,-99.9,0,0,100,30.12,29.53,14,-87,21,0.00
2013-2-27,44.0,31.7,34.0,-99.9,-99.9,-99.9,0,0,100,29.65,29.51,15,-56,22,0.00
2013-2-28,35.0,26.2,31.0,-99.9,-99.9,-99.9,0,0,100,29.90,29.60,24,4,29,0.00
2013-3-1,31.0,23.8,26.0,-99.9,-99.9,-99.9,0,0,100,30.05,29.90,23,-17,29,0.00
2013-3-2,27.0,20.4,23.0,-99.9,-99.9,-99.9,0,0,100,30.03,30.00,22,3,25,0.00
2013-3-3,26.0,20.0,23.0,-99.9,-99.9,-99.9,0,0,100,30.05,29.99,23,-12,26,0.00
2013-3-4,28.0,20.3,23.0,-99.9,-99.9,-99.9,0,0,100,30.15,30.05,12,-42,14,0.00
2013-3-5,31.0,21.4,21.0,-99.9,-99.9,-99.9,0,0,100,30.13,29.72,27,-48,31,0.00
2013-3-6,35.0,27.4,31.0,-99.9,-99.9,-99.9,0,0,100,30.19,29.72,21,-84,23,0.00
2013-3-7,32.0,25.3,30.0,-99.9,-99.9,-99.9,0,0,100,30.38,30.18,14,-14,17,0.00
2013-3-8,32.0,23.6,28.0,-99.9,-99.9,-99.9,0,0,100,30.48,30.38,10,-25,12,0.00
2013-3-9,51.0,29.6,24.0,-99.9,-99.9,-99.9,0,0,100,30.45,30.11,13,-87,16,0.00
2013-3-10,51.0,25.1,50.0,-99.9,-99.9,-99.9,0,0,100,30.11,30.07,9,-56,17,0.00
2013-11-3,44.0,1.5,38.0,-99.9,-99.9,-99.9,0,0,100,30.48,30.13,17,12,23,0.00
2013-11-4,46.0,1.2,38.0,-99.9,-99.9,-99.9,0,0,100,30.53,30.37,9,-11,18,0.00
2013-11-5,-200.0,0.0,200.0,-99.9,-99.9,-99.9,0,0,100,30.42,30.29,8,5,17,0.00
2013-11-6,66.0,2.3,63.0,-99.9,-99.9,-99.9,0,0,100,30.27,29.91,26,10,37,0.00
2013-11-7,45.0,2.4,42.0,-99.9,-99.9,-99.9,0,0,100,30.13,29.96,32,3,37,0.00
2013-11-8,41.0,1.5,39.0,-99.9,-99.9,-99.9,0,0,100,30.29,30.09,32,-4,39,0.00
2013-11-9,57.0,3.2,37.0,-99.9,-99.9,-99.9,0,0,100,30.26,29.88,27,-19,34,0.00
2013-11-10,50.0,4.7,44.0,-99.9,-99.9,-99.9,0,0,100,30.28,29.94,34,-9,40,0.00
2013-11-11,48.0,2.1,37.0,-99.9,-99.9,-99.9,0,0,100,30.28,30.04,30,-1,36,0.00
2013-11-12,35.0,3.1,33.0,-99.9,-99.9,-99.9,0,0,100,30.50,30.24,28,-53,34,0.00
2013-11-13,33.0,3.6,31.0,-99.9,-99.9,-99.9,0,0,100,30.53,30.28,16,-103,23,0.00
2013-11-14,41.0,0.7,41.0,-99.9,-99.9,-99.9,0,0,100,30.27,30.09,14,8,24,0.00
2013-11-15,49.0,2.2,45.0,-99.9,-99.9,-99.9,0,0,100,30.14,30.08,13,-8,21,0.00
2013-11-16,59.0,2.5,46.0,-99.9,-99.9,-99.9,0,0,100,30.18,29.92,10,6,18,0.00
2013-11-17,61.0,1.0,61.0,-99.9,-99.9,-99.9,0,0,100,29.92,29.44,42,13,57,0.00
2013-11-18,50.0,16.4,38.0,-99.9,-99.9,-99.9,0,0,100,30.11,29.57,38,-294,49,0.00
2013-11-19,37.0,37.0,37.0,-99.9,-99.9,-99.9,0,0,100,30.35,30.34,0,-999,0,0.00
2013-11-20,48.0,19.5,30.0,-99.9,-99.9,-99.9,0,0,100,30.46,30.31,6,-465,11,0.00
2013-11-21,42.0,40.8,40.0,-99.9,-99.9,-99.9,0,0,100,30.35,30.31,0,-999,0,0.00
2013-11-22,47.0,44.9,39.0,-99.9,-99.9,-99.9,0,0,100,30.29,30.16,0,-999,0,0.00
2013-11-23,37.0,32.1,24.0,-99.9,-99.9,-99.9,0,0,100,30.42,30.24,0,-999,0,0.00
2013-11-24,26.0,24.2,23.0,-99.9,-99.9,-99.9,0,0,100,30.53,30.47,0,-999,0,0.00
2013-11-25,32.0,26.3,20.0,-99.9,-99.9,-99.9,0,0,100,30.43,30.19,0,-999,0,0.00
2013-11-26,35.0,8.2,32.0,-99.9,-99.9,-99.9,0,0,100,30.16,29.88,18,-148,21,0.00
2013-11-27,35.0,1.0,27.0,-99.9,-99.9,-99.9,0,0,100,30.15,29.83,33,3,39,0.00
2013-11-29,31.0,0.3,31.0,-99.9,-99.9,-99.9,0,0,100,30.65,30.42,12,-6,16,0.00
2013-11-30,41.0,2.3,30.0,-99.9,-99.9,-99.9,0,0,100,30.61,30.16,9,-8,17,0.00
2013-12-1,42.0,3.8,36.0,-99.9,-99.9,-99.9,0,0,100,30.16,29.99,9,-35,14,0.00
2013-12-2,38.0,2.0,35.0,-99.9,-99.9,-99.9,0,0,100,29.98,29.89,13,-12,14,0.00
2013-12-3,37.0,2.2,33.0,-99.9,-99.9,-99.9,0,0,100,29.93,29.86,11,4,13,0.00
2013-12-4,59.0,4.1,47.0,-99.9,-99.9,-99.9,0,0,100,29.95,29.77,9,-14,20,0.00
2013-12-5,37.0,0.6,37.0,-99.9,-99.9,-99.9,0,0,100,30.14,29.74,26,-3,30,0.00
2013-12-6,-200.0,0.0,200.0,-99.9,-99.9,-99.9,0,0,100,30.35,30.12,21,11,23,0.00
2013-12-7,23.0,0.2,23.0,-99.9,-99.9,-99.9,0,0,100,30.60,30.35,21,13,25,0.00
2013-12-8,23.0,0.3,23.0,-99.9,-99.9,-99.9,0,0,100,30.60,30.05,12,-7,15,0.00
2013-12-9,28.0,0.4,28.0,-99.9,-99.9,-99.9,0,0,100,30.15,29.93,28,1,34,0.00
2013-12-10,23.0,0.0,200.0,-99.9,-99.9,-99.9,0,0,100,30.26,29.99,32,18,42,0.00
2013-12-11,25.0,0.7,23.0,-99.9,-99.9,-99.9,0,0,100,30.41,30.24,30,6,38,0.00
2013-12-12,20.0,0.4,20.0,-99.9,-99.9,-99.9,0,0,100,30.45,30.24,24,-4,31,0.00
2013-12-13,28.0,0.8,23.0,-99.9,-99.9,-99.9,0,0,100,30.28,30.20,21,-2,29,0.00
2013-12-14,28.0,0.6,26.0,-99.9,-99.9,-99.9,0,0,100,30.27,29.68,14,7,15,0.00
2013-12-15,23.0,0.9,17.0,-99.9,-99.9,-99.9,0,0,100,30.03,29.69,32,-14,37,0.00
2013-12-16,21.0,1.9,15.0,-99.9,-99.9,-99.9,0,0,100,30.19,30.06,11,-83,14,0.00
2013-12-18,28.0,4.8,26.0,-99.9,-99.9,-99.9,0,0,100,30.16,30.02,15,-170,23,0.00
2013-12-19,44.0,2.0,38.0,-99.9,-99.9,-99.9,0,0,100,30.03,29.96,11,6,16,0.00
2013-12-20,52.0,2.3,45.0,-99.9,-99.9,-99.9,0,0,100,29.95,29.79,14,8,22,0.00
2013-12-21,37.0,2.8,36.0,-99.9,-99.9,-99.9,0,0,100,29.86,29.70,15,-71,21,0.00
2013-12-22,62.0,9.5,36.0,-99.9,-99.9,-99.9,0,0,100,30.00,29.52,24,-156,28,0.00
2013-12-23,34.0,12.0,30.0,-99.9,-99.9,-99.9,0,0,100,30.32,29.99,18,-367,21,0.00
2013-12-24,28.0,21.4,19.0,-99.9,-99.9,-99.9,0,0,100,30.52,30.30,0,-999,0,0.00
2013-12-25,28.0,22.3,17.0,-99.9,-99.9,-99.9,0,0,100,30.48,30.18,0,-999,0,0.00
2013-12-26,30.0,3.8,27.0,-99.9,-99.9,-99.9,0,0,100,30.33,30.21,22,-82,27,0.00
2013-12-27,35.0,1.1,28.0,-99.9,-99.9,-99.9,0,0,100,30.34,30.17,18,8,27,0.00
2013-12-28,53.0,2.5,42.0,-99.9,-99.9,-99.9,0,0,100,30.17,29.99,17,10,27,0.00
2013-12-29,44.0,2.4,29.0,-99.9,-99.9,-99.9,0,0,100,29.99,29.72,20,-8,24,0.00
2013-12-30,21.0,0.6,19.0,-99.9,-99.9,-99.9,0,0,100,30.28,29.96,11,-14,14,0.00
2013-12-31,19.0,0.2,19.0,-99.9,-99.9,-99.9,0,0,100,30.32,30.06,32,16,42,0.00
2014-1-1,-200.0,0.0,200.0,-99.9,-99.9,-99.9,0,0,100,30.35,30.15,18,9,21,0.00
2014-1-2,-200.0,0.0,200.0,-99.9,-99.9,-99.9,0,0,100,30.15,29.89,38,26,46,0.00